Regional Weather Roundup
Issued by NWS

Home | Current Version | Previous Version | Graphics & Text | Print | Product List | Glossary On
Versions: 1 2 3 4 5 6 7 8 9 10 11 12 13 14 15 16 17 18 19 20 21 22 23 24 25 26 27 28 29 30 31 32 33 34 35 36 37 38 39 40 41 42 43 44 45 46 47 48 49 50
491
ASUS43 KIND 191359
RWRIN

WEATHER ROUNDUP FOR INDIANA
NATIONAL WEATHER SERVICE INDIANAPOLIS IN
900 AM EST THU JAN 19 2017

NOTE: "FAIR" INDICATES FEW OR NO CLOUDS BELOW 12,000 FEET WITH NO
SIGNIFICANT WEATHER AND/OR OBSTRUCTIONS TO VISIBILITY.

* - STATION DOES NOT REPORT WEATHER SUCH AS PRECIPITATION OR FOG.

+ - STATION NOT QUALITY CONTROLLED BY THE NATIONAL WEATHER SERVICE.
    USE DATA WITH CAUTION...ESPECIALLY DEWPOINT AND RELATIVE
    HUMIDITY OBSERVATIONS.

INZ001>003-010>013-019-020-191500-
NORTHWEST INDIANA

CITY           SKY/WX    TMP DP  RH WIND       PRES   REMARKS
GARY /AIRPORT/ CLOUDY    36  34  93 SE5       30.03S FOG
MONTICELLO +   CLOUDY    34  33  96 SE3       30.03F FOG

$$

LMZ046-743>745-191500-
SOUTHERN LAKE MICHIGAN

STATION/POSITION TIME  TEMP    WIND        PRES    WAVE
                       AIR SEA DIR/SP/G            HT
                 (UTC) (F)     (DEG/KT/KT) (MB)    (FT)
BURNS HARBOR     1340   35     180/  7/ 12 1017.3F

$$

INZ004-005-014>016-021>024-191500-
NORTH CENTRAL INDIANA

CITY           SKY/WX    TMP DP  RH WIND       PRES   REMARKS
ELKHART        FOG       34  32  93 SW6       30.04S VSB 1   WCI  29
GOSHEN         CLOUDY    35  32  88 SE5       30.04F FOG     WCI  31
PERU/GRISSOM   CLOUDY    35  35 100 SE9       30.03F FOG     WCI  27
SOUTH BEND     FOG       34  33  96 SE8       30.04F VSB 1   WCI  27

$$

INZ006>009-017-018-025>027-191500-
NORTHEAST INDIANA

CITY           SKY/WX    TMP DP  RH WIND       PRES   REMARKS
ANGOLA *+      CLOUDY    34  30  86 CALM      30.04F
FORT WAYNE     CLOUDY    35  32  88 S3        30.06F FOG
KENDALLVILLE + CLOUDY    33  33 100 CALM      30.05F FOG

$$

INZ028-029-035-036-043>045-051>053-191500-
WEST CENTRAL INDIANA

CITY           SKY/WX    TMP DP  RH WIND       PRES   REMARKS
CRAWFORDSVL +  CLOUDY    34  34 100 E8        30.03S FOG     WCI  27
LAFAYETTE      CLOUDY    34  34 100 E6        30.02F FOG     WCI  29
TERRE HAUTE    MOCLDY    38  34  85 SE5       30.02F

$$

INZ030>032-037>040-046>048-054>057-064-065-191500-
CENTRAL INDIANA

CITY           SKY/WX    TMP DP  RH WIND       PRES   REMARKS
ANDERSON       CLOUDY    36  36 100 SE6       30.07S FOG
COLUMBUS       CLOUDY    37  37 100 E7        30.06S FOG
INDIANAPOLIS   CLOUDY    37  35  92 E8        30.04S FOG
-EAGLE CREEK   CLOUDY    37  34  89 SE6       30.04F FOG
KOKOMO +       CLOUDY    34  34 100 SE10      30.05F FOG     WCI  26
MT COMFORT *+  CLOUDY    36  34  93 SE8       30.04F
SHELBYVILLE    CLOUDY    37  35  92 E8        30.05F FOG

$$

INZ033-034-041-042-049-050-058-059-191500-
EAST CENTRAL INDIANA

CITY           SKY/WX    TMP DP  RH WIND       PRES   REMARKS
MUNCIE         CLOUDY    37  34  89 S3        30.07S FOG

$$

INZ060-061-067>069-081>083-085>088-191500-
SOUTHWEST INDIANA

CITY           SKY/WX    TMP DP  RH WIND       PRES   REMARKS
EVANSVILLE     CLOUDY    44  38  79 E3        30.00F
HUNTINGBURG *+ CLOUDY    43  37  81 E7        30.00F

$$

INZ062-063-066-070>080-084-089>092-191500-
SOUTH CENTRAL AND SOUTHEAST INDIANA

CITY           SKY/WX    TMP DP  RH WIND       PRES   REMARKS
BLOOMINGTON    CLOUDY    38  34  85 E9        30.02F FOG
MADISON *+     CLOUDY    37  36  93 E7        30.07F
SEYMOUR +      CLOUDY    39  37  93 E5        30.06  FOG

$$





USA.gov is the U.S. government's official web portal to all federal, state and local government web resources and services.